{"data":{"norad_id":58125,"epoch":"2026-09-20T22:17:05.440416Z","epoch_age_seconds":103455,"freshness":"FRESH","line1":"1 58125U 23162H   26263.92853519  .00000234  00000+0  18042-4 0  9993","line2":"2 58125  42.9994 106.7139 0001453 261.8075  98.2612 15.27577618162207","mean_motion":15.27577618,"eccentricity":0.0001453,"inclination_deg":42.9994,"raan_deg":106.7139,"arg_perigee_deg":261.8075,"mean_anomaly_deg":98.2612,"bstar":1.8042e-5,"rev_number":16220,"period_min":94.266895706769,"perigee_km":482.05929723772,"apogee_km":484.05315998996,"semimajor_km":6861.1932286138,"source":"CELESTRAK","updated_at":"2026-09-21T09:00:33.791923Z"}}